When you browse on this site, cookies collect data to enhance your experience and personalize the content and advertising you see.
Visit our Privacy Policy to learn more. By continuing to use the site, you agree to this use of cookies and data.

Stündliche Wetter Thunder Bay

Heute, 22 September, Dienstag

Zeit Temperatur Niederschläge Wind Luftdruck Luftfeuchtigkeit
00:00 +16°C° 0 mm 3 m/S 736 mmHg 77%
01:00 +14°C° 0 mm 3 m/S 736 mmHg 75%
02:00 +14°C° 0 mm 3 m/S 736 mmHg 74%
03:00 +14°C° 0 mm 3 m/S 736 mmHg 72%
04:00 +13°C° 0 mm 3 m/S 737 mmHg 75%
05:00 +13°C° 0 mm 3 m/S 737 mmHg 79%
06:00 +13°C° 0 mm 3 m/S 738 mmHg 82%
07:00 +14°C° 0 mm 3 m/S 738 mmHg 75%
08:00 +17°C° 0 mm 3 m/S 738 mmHg 69%
09:00 +18°C° 0 mm 3 m/S 738 mmHg 63%
10:00 +20°C° 0 mm 3 m/S 738 mmHg 57%
11:00 +21°C° 0 mm 3 m/S 738 mmHg 51%
12:00 +22°C° 0 mm 3 m/S 738 mmHg 45%
13:00 +22°C° 0 mm 3 m/S 738 mmHg 46%
14:00 +24°C° 0 mm 3 m/S 737 mmHg 46%
15:00 +24°C° 0 mm 3 m/S 737 mmHg 47%
16:00 +21°C° 0 mm 2 m/S 737 mmHg 54%
17:00 +19°C° 0 mm 2 m/S 737 mmHg 62%
18:00 +18°C° 0 mm 1 m/S 737 mmHg 69%
19:00 +16°C° 0 mm 1 m/S 737 mmHg 71%
20:00 +15°C° 0 mm 1 m/S 736 mmHg 74%
21:00 +14°C° 0 mm 0 m/S 736 mmHg 76%
22:00 +14°C° 0 mm 1 m/S 736 mmHg 77%
23:00 +14°C° 0 mm 1 m/S 736 mmHg 78%

Morgen, 23 September, Mittwoch

Zeit Temperatur Niederschläge Wind Luftdruck Luftfeuchtigkeit
00:00 +14°C° 0 mm 1 m/S 736 mmHg 78%
01:00 +13°C° 0 mm 1 m/S 735 mmHg 78%
02:00 +13°C° 0 mm 1 m/S 735 mmHg 78%
03:00 +13°C° 0 mm 1 m/S 734 mmHg 78%
04:00 +13°C° 0 mm 1 m/S 734 mmHg 76%
05:00 +13°C° 0 mm 1 m/S 734 mmHg 75%
06:00 +13°C° 0 mm 1 m/S 734 mmHg 73%
07:00 +15°C° 0 mm 1 m/S 734 mmHg 67%
08:00 +19°C° 0 mm 1 m/S 734 mmHg 62%
09:00 +21°C° 0 mm 1 m/S 734 mmHg 56%
10:00 +21°C° 0 mm 2 m/S 734 mmHg 53%
11:00 +24°C° 0 mm 2 m/S 734 mmHg 50%
12:00 +25°C° 0 mm 2 m/S 734 mmHg 47%
13:00 +25°C° 0 mm 2 m/S 734 mmHg 49%
14:00 +24°C° 0 mm 2 m/S 734 mmHg 51%
15:00 +24°C° 0 mm 1 m/S 734 mmHg 53%
16:00 +21°C° 0 mm 2 m/S 734 mmHg 60%
17:00 +19°C° 0 mm 3 m/S 734 mmHg 67%
18:00 +17°C° 0 mm 4 m/S 734 mmHg 74%
19:00 +15°C° 0 mm 4 m/S 734 mmHg 77%
20:00 +14°C° 0 mm 4 m/S 735 mmHg 80%
21:00 +13°C° 0 mm 4 m/S 735 mmHg 82%
22:00 +13°C° 0 mm 3 m/S 735 mmHg 85%
23:00 +12°C° 0 mm 3 m/S 735 mmHg 87%

übermorgen, 24 September, Donnerstag

Zeit Temperatur Niederschläge Wind Luftdruck Luftfeuchtigkeit
00:00 +11°C° 0 mm 3 m/S 735 mmHg 90%
01:00 +11°C° 0 mm 3 m/S 735 mmHg 90%
02:00 +11°C° 0 mm 3 m/S 735 mmHg 89%
03:00 +10°C° 0 mm 3 m/S 735 mmHg 89%
04:00 +10°C° 0 mm 3 m/S 736 mmHg 87%
05:00 +10°C° 0 mm 3 m/S 736 mmHg 86%
06:00 +10°C° 0 mm 4 m/S 736 mmHg 84%
07:00 +10°C° 0 mm 3 m/S 736 mmHg 80%
08:00 +11°C° 0 mm 3 m/S 736 mmHg 77%
09:00 +12°C° 0 mm 3 m/S 736 mmHg 74%
10:00 +13°C° 0 mm 3 m/S 736 mmHg 71%
11:00 +13°C° 0 mm 3 m/S 736 mmHg 69%
12:00 +14°C° 0 mm 3 m/S 736 mmHg 66%
13:00 +14°C° 0 mm 3 m/S 735 mmHg 67%
14:00 +14°C° 0 mm 3 m/S 735 mmHg 68%
15:00 +14°C° 0 mm 3 m/S 735 mmHg 70%
16:00 +13°C° 0 mm 2 m/S 735 mmHg 77%
17:00 +12°C° 0 mm 1 m/S 735 mmHg 84%
18:00 +11°C° 0 mm 1 m/S 734 mmHg 91%
19:00 +10°C° 0 mm 1 m/S 734 mmHg 92%
20:00 +10°C° 0 mm 1 m/S 734 mmHg 93%
21:00 +10°C° 0 mm 1 m/S 734 mmHg 94%
22:00 +10°C° 0 mm 1 m/S 734 mmHg 94%
23:00 +10°C° 0 mm 1 m/S 734 mmHg 94%

25 September, Freitag

Zeit Temperatur Niederschläge Wind Luftdruck Luftfeuchtigkeit
00:00 +10°C° 0 mm 1 m/S 733 mmHg 94%
01:00 +10°C° 0 mm 1 m/S 733 mmHg 94%
02:00 +10°C° 0 mm 1 m/S 733 mmHg 94%
03:00 +11°C° 0 mm 1 m/S 733 mmHg 94%
04:00 +11°C° 0 mm 1 m/S 732 mmHg 95%
05:00 +10°C° 0 mm 1 m/S 732 mmHg 96%
06:00 +10°C° 0 mm 1 m/S 732 mmHg 97%
07:00 +12°C° 0 mm 2 m/S 732 mmHg 94%
08:00 +14°C° 0 mm 2 m/S 732 mmHg 91%
09:00 +16°C° 0 mm 3 m/S 732 mmHg 88%
10:00 +17°C° 0 mm 3 m/S 731 mmHg 83%
11:00 +18°C° 0 mm 4 m/S 731 mmHg 78%
12:00 +20°C° 0 mm 4 m/S 730 mmHg 73%
13:00 +20°C° 0 mm 4 m/S 730 mmHg 73%
14:00 +20°C° 0 mm 4 m/S 729 mmHg 73%
15:00 +20°C° 0 mm 3 m/S 729 mmHg 73%
16:00 +18°C° 0 mm 3 m/S 729 mmHg 79%
17:00 +17°C° 0 mm 2 m/S 729 mmHg 85%
18:00 +15°C° 0 mm 1 m/S 728 mmHg 92%
19:00 +15°C° 0 mm 1 m/S 728 mmHg 92%
20:00 +15°C° 0 mm 1 m/S 728 mmHg 91%
21:00 +15°C° 0 mm 2 m/S 727 mmHg 91%
22:00 +16°C° 0.4 mm 2 m/S 727 mmHg 92%
23:00 +16°C° 0.4 mm 3 m/S 726 mmHg 94%

26 September, Samstag

Zeit Temperatur Niederschläge Wind Luftdruck Luftfeuchtigkeit
00:00 +16°C° 0.4 mm 3 m/S 726 mmHg 95%
01:00 +17°C° 0.8 mm 3 m/S 726 mmHg 96%
02:00 +17°C° 0.8 mm 3 m/S 726 mmHg 96%
03:00 +17°C° 0.8 mm 3 m/S 725 mmHg 97%
04:00 +17°C° 0.7 mm 4 m/S 725 mmHg 97%
05:00 +17°C° 0.7 mm 4 m/S 726 mmHg 97%
06:00 +17°C° 0.7 mm 4 m/S 726 mmHg 96%
07:00 +18°C° 0.2 mm 4 m/S 726 mmHg 92%
08:00 +18°C° 0.2 mm 4 m/S 726 mmHg 88%
09:00 +19°C° 0.2 mm 4 m/S 727 mmHg 84%
10:00 +20°C° 0.2 mm 4 m/S 727 mmHg 74%
11:00 +21°C° 0.2 mm 4 m/S 727 mmHg 64%
12:00 +22°C° 0.2 mm 4 m/S 728 mmHg 54%
13:00 +22°C° 0 mm 4 m/S 728 mmHg 52%
14:00 +22°C° 0 mm 3 m/S 728 mmHg 49%
15:00 +22°C° 0 mm 3 m/S 728 mmHg 46%
16:00 +20°C° 0.1 mm 3 m/S 728 mmHg 50%
17:00 +19°C° 0.1 mm 3 m/S 728 mmHg 54%
18:00 +18°C° 0.1 mm 3 m/S 728 mmHg 58%
19:00 +17°C° 0 mm 3 m/S 728 mmHg 62%
20:00 +14°C° 0 mm 3 m/S 729 mmHg 66%
21:00 +13°C° 0 mm 3 m/S 729 mmHg 70%
22:00 +13°C° 0 mm 3 m/S 729 mmHg 73%
23:00 +12°C° 0 mm 4 m/S 729 mmHg 76%

27 September, Sonntag

Zeit Temperatur Niederschläge Wind Luftdruck Luftfeuchtigkeit
00:00 +12°C° 0 mm 4 m/S 729 mmHg 79%
01:00 +12°C° 0 mm 4 m/S 729 mmHg 82%
02:00 +11°C° 0 mm 4 m/S 729 mmHg 84%
03:00 +11°C° 0 mm 4 m/S 729 mmHg 87%
04:00 +11°C° 0 mm 4 m/S 730 mmHg 88%
05:00 +10°C° 0 mm 4 m/S 730 mmHg 88%
06:00 +10°C° 0 mm 4 m/S 730 mmHg 89%
07:00 +12°C° 0 mm 4 m/S 730 mmHg 82%
08:00 +13°C° 0 mm 3 m/S 730 mmHg 74%
09:00 +16°C° 0 mm 3 m/S 730 mmHg 67%
10:00 +17°C° 0 mm 3 m/S 730 mmHg 61%
11:00 +18°C° 0 mm 3 m/S 729 mmHg 55%
12:00 +19°C° 0 mm 3 m/S 729 mmHg 49%
13:00 +19°C° 0 mm 3 m/S 729 mmHg 49%
14:00 +19°C° 0 mm 3 m/S 728 mmHg 50%
15:00 +19°C° 0 mm 3 m/S 728 mmHg 51%
16:00 +17°C° 0.1 mm 3 m/S 727 mmHg 60%
17:00 +14°C° 0.1 mm 4 m/S 727 mmHg 69%
18:00 +13°C° 0.1 mm 4 m/S 727 mmHg 78%
19:00 +12°C° 0.3 mm 3 m/S 726 mmHg 83%
20:00 +11°C° 0.3 mm 3 m/S 725 mmHg 88%
21:00 +10°C° 0.3 mm 2 m/S 724 mmHg 93%
22:00 +10°C° 1 mm 3 m/S 723 mmHg 94%
23:00 +10°C° 1 mm 3 m/S 722 mmHg 95%
Mehr zeigen